Location: La Trinit�
(48.1620°N, 3.4512°W)
Time: 18:31:23
(UTC+00:00)

Cosmos 2084 - Pass Details

Date: 08 May 2021
Orbit: 542 x 639 km, 62.8° (Epoch: 16 June)

Event Time Altitude Azimuth Distance (km) Brightness Sun altitude
Exits shadow 21:18:00 17° 176° (S) 1,434 5.0 -14.1°
Maximum altitude 21:20:32 33° 121° (ESE) 954 4.0 -14.4°
Drops below altitude 10° 21:24:20 10° 57° (ENE) 1,879 6.0 -14.8°
Sets 21:26:45 0° 48° (NE) 2,799 7.0 -15.0°
